STARLINK-PRE (74001 NORAD) Tracking and Keplerian Element Data
This shows tracking and keplerian element data for the satellite.
Feedback or suggestion? Click here.
Element | Value |
Catalog | 74001 |
Name | STARLINK-PRE |
Epoch Orbit | 0 |
Epoch Day | 361.08819444 |
Epoch Year | 2018 |
RAAN | 266 |
Inclination | 97.72 |
Eccentricity | 0.0001436 |
Argument of Perigee | 0 |
Mean Anonmoly | 35 |
Mean Motion | 14.94155472 |
Decay Rate | 0 |
L1 | 1 74001U 18861A 18361.08819444 .00000000 00000-0 50000-4 0 05 |
L2 | 2 74001 97.7200 266.0000 0001436 0.0000 35.0000 14.94155472 07 |
Live tracking and technical data element details for STARLINK-PRE (NORAD 74001). STARLINK-PRE can be tracked NOW for your location showing map with azimuth and elevation plus other details from your city location.
Track the satellite on the map from your city or location and see movement details for azimuth, elevation, latitude, longitude, range, height, and movement on the map or in text.
IsCatalogInMostPopularTable: catalog: 74001, numindb: 5142
Update: records affected: 1
GetName: 74001 STARLINK-PRE
Hit Count: updated at: Sat, 10 Apr 2021 19:16:36 GMT